Time,TemperatureF,DewpointF,PressureIn,WindDirection,WindDirectionDegrees,WindSpeedMPH,WindSpeedGustMPH,Humidity,HourlyPrecipIn,Conditions,Clouds,dailyrainin,SoftwareType,DateUTC
2013-11-16 00:01:00,38.8,36.7,30.24,NNW,342,0.0,1.0,92,0.00,,,0.00,meteohub,2013-11-16 05:01:00,
2013-11-16 00:02:00,38.8,37.0,30.24,NNW,342,0.0,1.0,93,0.00,,,0.00,meteohub,2013-11-16 05:02:00,
2013-11-16 00:07:00,39.0,37.2,30.24,North,352,0.0,1.0,93,0.00,,,0.00,meteohub,2013-11-16 05:07:00,
2013-11-16 00:12:00,39.0,37.2,30.24,NNE,15,0.0,1.0,93,0.00,,,0.00,meteohub,2013-11-16 05:12:00,
2013-11-16 00:17:00,39.0,37.2,30.24,NNE,15,0.0,1.0,93,0.00,,,0.00,meteohub,2013-11-16 05:17:00,
2013-11-16 00:22:00,38.7,36.9,30.24,NNE,15,0.0,1.0,93,0.00,,,0.00,meteohub,2013-11-16 05:22:00,
2013-11-16 00:27:00,38.5,36.7,30.24,NNE,13,0.0,0.0,93,0.00,,,0.00,meteohub,2013-11-16 05:27:00,
2013-11-16 00:32:00,38.5,36.7,30.24,NNE,13,0.0,0.0,93,0.00,,,0.00,meteohub,2013-11-16 05:32:00,
2013-11-16 00:37:00,38.7,37.0,30.23,NNW,348,0.0,0.0,94,0.00,,,0.00,meteohub,2013-11-16 05:37:00,
2013-11-16 00:42:00,39.2,37.6,30.24,NW,305,0.0,0.0,94,0.00,,,0.00,meteohub,2013-11-16 05:42:00,
2013-11-16 00:47:00,39.7,38.5,30.24,West,281,0.0,0.0,95,0.00,,,0.00,meteohub,2013-11-16 05:47:00,
2013-11-16 00:52:00,40.1,39.0,30.24,WNW,296,0.0,0.0,96,0.00,,,0.00,meteohub,2013-11-16 05:52:00,
2013-11-16 00:57:00,41.4,40.6,30.24,WNW,295,0.0,1.0,97,0.00,,,0.00,meteohub,2013-11-16 05:57:00,
2013-11-16 01:02:00,42.1,41.0,30.24,WNW,295,0.0,2.0,96,0.00,,,0.00,meteohub,2013-11-16 06:02:00,
2013-11-16 01:07:00,42.6,41.5,30.24,WNW,290,0.0,2.0,96,0.00,,,0.00,meteohub,2013-11-16 06:07:00,
2013-11-16 01:12:00,43.3,42.1,30.24,WSW,253,0.0,2.0,95,0.00,,,0.00,meteohub,2013-11-16 06:12:00,
2013-11-16 01:17:00,43.5,42.3,30.24,WNW,288,0.0,2.0,95,0.00,,,0.00,meteohub,2013-11-16 06:17:00,
2013-11-16 01:22:00,43.9,42.3,30.24,WNW,291,0.0,6.0,94,0.00,,,0.00,meteohub,2013-11-16 06:22:00,
2013-11-16 01:27:00,44.1,42.4,30.24,WNW,302,0.0,6.0,94,0.00,,,0.00,meteohub,2013-11-16 06:27:00,
2013-11-16 01:32:00,44.4,42.4,30.24,WNW,284,1.0,3.0,93,0.00,,,0.00,meteohub,2013-11-16 06:32:00,
2013-11-16 01:37:00,44.4,42.4,30.24,NW,304,0.0,2.0,93,0.00,,,0.00,meteohub,2013-11-16 06:37:00,
2013-11-16 01:42:00,44.6,42.6,30.24,WNW,291,0.0,2.0,93,0.00,,,0.00,meteohub,2013-11-16 06:42:00,
2013-11-16 01:47:00,44.6,42.4,30.24,WNW,288,2.0,2.0,92,0.00,,,0.00,meteohub,2013-11-16 06:47:00,
2013-11-16 01:52:00,44.6,42.4,30.24,WNW,294,1.0,2.0,92,0.00,,,0.00,meteohub,2013-11-16 06:52:00,
2013-11-16 01:57:00,44.6,42.4,30.24,NW,318,2.0,3.0,92,0.00,,,0.00,meteohub,2013-11-16 06:57:00,
2013-11-16 02:02:00,44.4,41.9,30.24,NW,305,0.0,3.0,91,0.00,,,0.00,meteohub,2013-11-16 07:02:00,
2013-11-16 02:07:00,44.4,41.9,30.24,WNW,285,0.0,4.0,91,0.00,,,0.00,meteohub,2013-11-16 07:07:00,
2013-11-16 02:12:00,44.4,42.3,30.24,WNW,294,0.0,4.0,92,0.00,,,0.00,meteohub,2013-11-16 07:12:00,
2013-11-16 02:17:00,44.4,42.3,30.23,NW,308,2.0,3.0,92,0.00,,,0.00,meteohub,2013-11-16 07:17:00,
2013-11-16 02:22:00,44.4,42.3,30.23,WNW,298,2.0,2.0,92,0.00,,,0.00,meteohub,2013-11-16 07:22:00,
2013-11-16 02:27:00,44.4,41.9,30.23,WNW,288,0.0,3.0,91,0.00,,,0.00,meteohub,2013-11-16 07:27:00,
2013-11-16 02:32:00,44.4,41.9,30.24,West,268,0.0,3.0,91,0.00,,,0.00,meteohub,2013-11-16 07:32:00,
2013-11-16 02:37:00,44.4,41.9,30.23,WNW,287,0.0,3.0,91,0.00,,,0.00,meteohub,2013-11-16 07:37:00,
2013-11-16 02:42:00,44.6,42.1,30.23,WNW,298,0.0,2.0,91,0.00,,,0.00,meteohub,2013-11-16 07:42:00,
2013-11-16 02:47:00,44.8,42.3,30.23,WNW,295,0.0,2.0,91,0.00,,,0.00,meteohub,2013-11-16 07:47:00,
2013-11-16 02:52:00,45.0,42.4,30.24,West,259,0.0,4.0,91,0.00,,,0.00,meteohub,2013-11-16 07:52:00,
2013-11-16 02:57:00,45.1,42.4,30.25,WNW,285,2.0,4.0,90,0.00,,,0.00,meteohub,2013-11-16 07:57:00,
2013-11-16 03:02:00,45.1,42.4,30.25,WSW,255,1.0,4.0,90,0.00,,,0.00,meteohub,2013-11-16 08:02:00,
2013-11-16 03:07:00,45.3,42.6,30.25,West,276,2.0,4.0,90,0.00,,,0.00,meteohub,2013-11-16 08:07:00,
2013-11-16 03:12:00,45.7,43.0,30.25,West,267,1.0,4.0,90,0.00,,,0.00,meteohub,2013-11-16 08:12:00,
2013-11-16 03:17:00,45.9,42.8,30.25,WSW,255,2.0,5.0,89,0.00,,,0.00,meteohub,2013-11-16 08:17:00,
2013-11-16 03:22:00,45.9,42.8,30.25,West,269,2.0,5.0,89,0.00,,,0.00,meteohub,2013-11-16 08:22:00,
2013-11-16 03:27:00,45.9,42.4,30.25,WSW,238,0.0,5.0,88,0.00,,,0.00,meteohub,2013-11-16 08:27:00,
2013-11-16 03:32:00,45.9,42.4,30.26,West,278,3.0,5.0,88,0.00,,,0.00,meteohub,2013-11-16 08:32:00,
2013-11-16 03:37:00,46.0,42.6,30.26,WNW,298,1.0,4.0,88,0.00,,,0.00,meteohub,2013-11-16 08:37:00,
2013-11-16 03:42:00,46.0,42.6,30.26,WNW,288,3.0,4.0,88,0.00,,,0.00,meteohub,2013-11-16 08:42:00,
2013-11-16 03:48:00,46.0,42.4,30.26,West,278,2.0,4.0,87,0.00,,,0.00,meteohub,2013-11-16 08:48:00,
2013-11-16 03:53:00,46.0,42.1,30.26,WNW,285,4.0,5.0,86,0.00,,,0.00,meteohub,2013-11-16 08:53:00,
2013-11-16 03:58:00,46.0,41.7,30.26,WNW,285,2.0,7.0,85,0.00,,,0.00,meteohub,2013-11-16 08:58:00,
2013-11-16 04:03:00,46.0,41.5,30.26,WNW,291,3.0,7.0,84,0.00,,,0.00,meteohub,2013-11-16 09:03:00,
2013-11-16 04:08:00,45.9,41.4,30.26,WNW,288,3.0,7.0,84,0.00,,,0.00,meteohub,2013-11-16 09:08:00,
2013-11-16 04:13:00,45.9,41.0,30.26,NW,323,0.0,7.0,83,0.00,,,0.00,meteohub,2013-11-16 09:13:00,
2013-11-16 04:18:00,45.7,40.8,30.26,WNW,287,0.0,5.0,83,0.00,,,0.00,meteohub,2013-11-16 09:18:00,
2013-11-16 04:23:00,45.5,40.6,30.26,NW,310,0.0,4.0,83,0.00,,,0.00,meteohub,2013-11-16 09:23:00,
2013-11-16 04:28:00,45.3,40.5,30.26,WNW,285,0.0,3.0,83,0.00,,,0.00,meteohub,2013-11-16 09:28:00,
2013-11-16 04:33:00,45.1,40.3,30.26,NW,304,0.0,2.0,83,0.00,,,0.00,meteohub,2013-11-16 09:33:00,
2013-11-16 04:38:00,45.1,40.3,30.25,NW,312,0.0,1.0,83,0.00,,,0.00,meteohub,2013-11-16 09:38:00,
2013-11-16 04:43:00,45.0,40.1,30.25,NW,312,0.0,1.0,83,0.00,,,0.00,meteohub,2013-11-16 09:43:00,
2013-11-16 04:48:00,44.8,39.9,30.27,SW,232,0.0,0.0,83,0.00,,,0.00,meteohub,2013-11-16 09:48:00,
2013-11-16 04:53:00,44.6,40.1,30.26,SW,214,0.0,1.0,84,0.00,,,0.00,meteohub,2013-11-16 09:53:00,
2013-11-16 04:58:00,44.4,39.9,30.26,SSW,212,0.0,1.0,84,0.00,,,0.00,meteohub,2013-11-16 09:58:00,
2013-11-16 05:03:00,44.4,39.9,30.26,SW,219,0.0,1.0,84,0.00,,,0.00,meteohub,2013-11-16 10:03:00,
2013-11-16 05:08:00,44.4,39.9,30.26,SW,221,0.0,1.0,84,0.00,,,0.00,meteohub,2013-11-16 10:08:00,
2013-11-16 05:13:00,44.2,39.7,30.27,SW,226,0.0,0.0,84,0.00,,,0.00,meteohub,2013-11-16 10:13:00,
2013-11-16 05:18:00,44.1,39.6,30.25,SW,226,0.0,0.0,84,0.00,,,0.00,meteohub,2013-11-16 10:18:00,
2013-11-16 05:24:00,44.1,39.9,30.26,SW,226,0.0,0.0,85,0.00,,,0.00,meteohub,2013-11-16 10:24:00,
2013-11-16 05:29:00,43.5,39.6,30.27,SW,214,2.0,2.0,86,0.00,,,0.00,meteohub,2013-11-16 10:29:00,
2013-11-16 05:34:00,43.5,39.9,30.27,SW,222,2.0,3.0,87,0.00,,,0.00,meteohub,2013-11-16 10:34:00,
2013-11-16 05:39:00,43.7,39.7,30.27,WSW,249,1.0,3.0,86,0.00,,,0.00,meteohub,2013-11-16 10:39:00,
2013-11-16 05:44:00,44.1,39.6,30.27,SW,229,2.0,3.0,84,0.00,,,0.00,meteohub,2013-11-16 10:44:00,
2013-11-16 05:49:00,44.2,39.4,30.27,SW,228,0.0,3.0,83,0.00,,,0.00,meteohub,2013-11-16 10:49:00,
2013-11-16 05:54:00,44.4,39.6,30.27,SW,217,0.0,2.0,83,0.00,,,0.00,meteohub,2013-11-16 10:54:00,
2013-11-16 05:59:00,44.4,39.6,30.27,SW,214,0.0,2.0,83,0.00,,,0.00,meteohub,2013-11-16 10:59:00,
2013-11-16 06:04:00,44.2,39.7,30.28,WSW,248,0.0,2.0,84,0.00,,,0.00,meteohub,2013-11-16 11:04:00,
2013-11-16 06:09:00,44.1,39.2,30.28,WSW,248,0.0,2.0,83,0.00,,,0.00,meteohub,2013-11-16 11:09:00,
2013-11-16 06:14:00,44.1,39.2,30.28,WSW,248,0.0,1.0,83,0.00,,,0.00,meteohub,2013-11-16 11:14:00,
2013-11-16 06:19:00,44.1,39.2,30.28,WSW,248,0.0,0.0,83,0.00,,,0.00,meteohub,2013-11-16 11:19:00,
2013-11-16 06:24:00,44.1,39.2,30.28,WSW,248,0.0,0.0,83,0.00,,,0.00,meteohub,2013-11-16 11:24:00,
2013-11-16 06:29:00,43.9,39.4,30.28,WSW,248,0.0,0.0,84,0.00,,,0.00,meteohub,2013-11-16 11:29:00,
2013-11-16 06:34:00,43.9,39.4,30.29,SW,217,0.0,0.0,84,0.00,,,0.00,meteohub,2013-11-16 11:34:00,
2013-11-16 06:39:00,43.7,39.2,30.29,SSW,205,0.0,1.0,84,0.00,,,0.00,meteohub,2013-11-16 11:39:00,
2013-11-16 06:44:00,43.7,39.2,30.29,SW,224,0.0,1.0,84,0.00,,,0.00,meteohub,2013-11-16 11:44:00,
2013-11-16 06:49:00,43.7,39.2,30.30,South,176,0.0,1.0,84,0.00,,,0.00,meteohub,2013-11-16 11:49:00,
2013-11-16 06:54:00,43.9,39.0,30.30,South,176,0.0,1.0,83,0.00,,,0.00,meteohub,2013-11-16 11:54:00,
2013-11-16 06:59:00,43.9,38.7,30.30,SW,224,0.0,1.0,82,0.00,,,0.00,meteohub,2013-11-16 11:59:00,
2013-11-16 07:04:00,44.1,38.3,30.30,SSW,195,0.0,2.0,80,0.00,,,0.00,meteohub,2013-11-16 12:04:00,
2013-11-16 07:09:00,44.4,37.9,30.30,WNW,300,3.0,3.0,78,0.00,,,0.00,meteohub,2013-11-16 12:09:00,
2013-11-16 07:14:00,45.1,37.0,30.29,WNW,298,3.0,3.0,73,0.00,,,0.00,meteohub,2013-11-16 12:14:00,
2013-11-16 07:19:00,46.6,35.1,30.29,NNW,328,4.0,7.0,64,0.00,,,0.00,meteohub,2013-11-16 12:19:00,
2013-11-16 07:24:00,47.7,32.7,30.30,NW,318,5.0,9.0,56,0.00,,,0.00,meteohub,2013-11-16 12:24:00,
2013-11-16 07:29:00,48.7,30.9,30.30,WNW,298,11.0,15.0,50,0.00,,,0.00,meteohub,2013-11-16 12:29:00,
2013-11-16 07:34:00,48.7,31.5,30.30,NW,316,6.0,21.0,51,0.00,,,0.00,meteohub,2013-11-16 12:34:00,
2013-11-16 07:39:00,48.7,31.8,30.30,WNW,294,8.0,21.0,52,0.00,,,0.00,meteohub,2013-11-16 12:39:00,
2013-11-16 07:44:00,48.7,32.4,30.30,WNW,302,9.0,21.0,53,0.00,,,0.00,meteohub,2013-11-16 12:44:00,
2013-11-16 07:50:00,48.7,31.8,30.30,WNW,298,11.0,14.0,52,0.00,,,0.00,meteohub,2013-11-16 12:50:00,
2013-11-16 07:55:00,48.7,31.5,30.30,NW,321,4.0,14.0,51,0.00,,,0.00,meteohub,2013-11-16 12:55:00,
2013-11-16 08:00:00,48.7,31.5,30.31,WNW,295,6.0,14.0,51,0.00,,,0.00,meteohub,2013-11-16 13:00:00,
2013-11-16 08:05:00,48.9,31.6,30.31,NNW,329,4.0,14.0,51,0.00,,,0.00,meteohub,2013-11-16 13:05:00,
2013-11-16 08:10:00,48.9,31.6,30.31,NNW,342,3.0,11.0,51,0.00,,,0.00,meteohub,2013-11-16 13:10:00,
2013-11-16 08:15:00,48.7,31.5,30.32,NW,312,8.0,10.0,51,0.00,,,0.00,meteohub,2013-11-16 13:15:00,
2013-11-16 08:20:00,48.6,31.8,30.32,NNW,328,6.0,9.0,52,0.00,,,0.00,meteohub,2013-11-16 13:20:00,
2013-11-16 08:25:00,48.6,32.2,30.32,NNW,328,8.0,9.0,53,0.00,,,0.00,meteohub,2013-11-16 13:25:00,
2013-11-16 08:30:00,48.4,32.5,30.32,WNW,300,3.0,11.0,54,0.00,,,0.00,meteohub,2013-11-16 13:30:00,
2013-11-16 08:35:00,48.4,32.9,30.32,NW,305,2.0,11.0,55,0.00,,,0.00,meteohub,2013-11-16 13:35:00,
2013-11-16 08:40:00,48.7,33.8,30.32,WSW,256,6.0,11.0,56,0.00,,,0.00,meteohub,2013-11-16 13:40:00,
2013-11-16 08:45:00,48.9,34.3,30.32,WNW,285,2.0,8.0,57,0.00,,,0.00,meteohub,2013-11-16 13:45:00,
2013-11-16 08:50:00,49.1,34.5,30.32,WNW,286,3.0,8.0,57,0.00,,,0.00,meteohub,2013-11-16 13:50:00,
2013-11-16 08:55:00,49.3,34.7,30.32,WNW,289,0.0,8.0,57,0.00,,,0.00,meteohub,2013-11-16 13:55:00,
2013-11-16 09:00:00,49.5,35.2,30.32,WNW,295,0.0,6.0,58,0.00,,,0.00,meteohub,2013-11-16 14:00:00,
2013-11-16 09:05:00,49.8,35.2,30.32,NW,312,0.0,5.0,57,0.00,,,0.00,meteohub,2013-11-16 14:05:00,
2013-11-16 09:10:00,50.2,36.3,30.31,WNW,298,0.0,5.0,59,0.00,,,0.00,meteohub,2013-11-16 14:10:00,
2013-11-16 09:15:00,50.4,35.8,30.31,South,188,0.0,2.0,57,0.00,,,0.00,meteohub,2013-11-16 14:15:00,
2013-11-16 09:21:00,50.7,36.0,30.31,SSW,203,0.0,0.0,57,0.00,,,0.00,meteohub,2013-11-16 14:21:00,
2013-11-16 09:26:00,50.4,36.5,30.32,SSW,194,6.0,10.0,59,0.00,,,0.00,meteohub,2013-11-16 14:26:00,
2013-11-16 09:31:00,50.2,36.3,30.32,SSW,207,2.0,10.0,59,0.00,,,0.00,meteohub,2013-11-16 14:31:00,
2013-11-16 09:36:00,50.4,38.7,30.32,South,190,4.0,10.0,64,0.00,,,0.00,meteohub,2013-11-16 14:36:00,
2013-11-16 09:41:00,50.2,38.5,30.32,South,184,4.0,7.0,64,0.00,,,0.00,meteohub,2013-11-16 14:41:00,
2013-11-16 09:46:00,50.2,38.8,30.32,SSW,200,4.0,6.0,65,0.00,,,0.00,meteohub,2013-11-16 14:46:00,
2013-11-16 09:51:00,50.0,38.7,30.32,South,188,4.0,7.0,65,0.00,,,0.00,meteohub,2013-11-16 14:51:00,
2013-11-16 09:56:00,50.2,38.8,30.32,SSW,194,2.0,7.0,65,0.00,,,0.00,meteohub,2013-11-16 14:56:00,
2013-11-16 10:01:00,50.2,39.2,30.32,South,187,3.0,7.0,66,0.00,,,0.00,meteohub,2013-11-16 15:01:00,
2013-11-16 10:06:00,50.4,39.4,30.32,SSW,198,6.0,6.0,66,0.00,,,0.00,meteohub,2013-11-16 15:06:00,
2013-11-16 10:11:00,50.5,39.2,30.33,SSW,210,5.0,7.0,65,0.00,,,0.00,meteohub,2013-11-16 15:11:00,
2013-11-16 10:16:00,51.1,38.8,30.33,SSW,198,4.0,7.0,63,0.00,,,0.00,meteohub,2013-11-16 15:16:00,
2013-11-16 10:21:00,51.6,39.0,30.32,South,183,3.0,7.0,62,0.00,,,0.00,meteohub,2013-11-16 15:21:00,
2013-11-16 10:26:00,52.2,39.9,30.32,South,190,4.0,7.0,63,0.00,,,0.00,meteohub,2013-11-16 15:26:00,
2013-11-16 10:31:00,52.5,40.3,30.32,South,188,5.0,7.0,63,0.00,,,0.00,meteohub,2013-11-16 15:31:00,
2013-11-16 10:36:00,52.7,40.1,30.32,SSW,199,3.0,7.0,62,0.00,,,0.00,meteohub,2013-11-16 15:36:00,
2013-11-16 10:41:00,52.9,40.6,30.32,South,191,6.0,7.0,63,0.00,,,0.00,meteohub,2013-11-16 15:41:00,
2013-11-16 10:46:00,53.1,40.8,30.32,SSW,203,5.0,7.0,63,0.00,,,0.00,meteohub,2013-11-16 15:46:00,
2013-11-16 10:51:00,52.9,41.4,30.32,South,191,6.0,7.0,65,0.00,,,0.00,meteohub,2013-11-16 15:51:00,
2013-11-16 10:56:00,52.7,42.1,30.31,SSW,194,5.0,7.0,67,0.00,,,0.00,meteohub,2013-11-16 15:56:00,
2013-11-16 11:01:00,52.9,41.9,30.31,South,187,4.0,7.0,66,0.00,,,0.00,meteohub,2013-11-16 16:01:00,
2013-11-16 11:06:00,53.2,42.3,30.31,SW,233,0.0,7.0,66,0.00,,,0.00,meteohub,2013-11-16 16:06:00,
2013-11-16 11:11:00,54.3,40.8,30.31,WSW,255,5.0,7.0,60,0.00,,,0.00,meteohub,2013-11-16 16:11:00,
2013-11-16 11:16:00,55.0,40.5,30.30,West,264,0.0,8.0,58,0.00,,,0.00,meteohub,2013-11-16 16:16:00,
2013-11-16 11:21:00,55.2,40.3,30.30,West,263,5.0,8.0,57,0.00,,,0.00,meteohub,2013-11-16 16:21:00,
2013-11-16 11:26:00,55.2,40.3,30.31,West,265,4.0,9.0,57,0.00,,,0.00,meteohub,2013-11-16 16:26:00,
2013-11-16 11:31:00,55.4,40.5,30.30,WSW,257,4.0,9.0,57,0.00,,,0.00,meteohub,2013-11-16 16:31:00,
2013-11-16 11:36:00,55.6,40.6,30.30,SW,219,2.0,9.0,57,0.00,,,0.00,meteohub,2013-11-16 16:36:00,
2013-11-16 11:41:00,55.8,40.8,30.30,SW,228,6.0,9.0,57,0.00,,,0.00,meteohub,2013-11-16 16:41:00,
2013-11-16 11:46:00,55.8,41.2,30.30,WNW,295,4.0,11.0,58,0.00,,,0.00,meteohub,2013-11-16 16:46:00,
2013-11-16 11:51:00,56.3,41.2,30.30,South,180,4.0,11.0,57,0.00,,,0.00,meteohub,2013-11-16 16:51:00,
2013-11-16 11:56:00,56.7,40.6,30.29,SSW,201,8.0,10.0,55,0.00,,,0.00,meteohub,2013-11-16 16:56:00,
2013-11-16 12:01:00,56.8,40.5,30.29,WNW,283,3.0,12.0,54,0.00,,,0.00,meteohub,2013-11-16 17:01:00,
2013-11-16 12:06:00,57.0,41.5,30.29,WSW,238,3.0,12.0,56,0.00,,,0.00,meteohub,2013-11-16 17:06:00,
2013-11-16 12:12:00,57.4,40.5,30.29,West,279,1.0,12.0,53,0.00,,,0.00,meteohub,2013-11-16 17:12:00,
2013-11-16 12:17:00,57.7,39.7,30.29,SSW,198,6.0,11.0,51,0.00,,,0.00,meteohub,2013-11-16 17:17:00,
2013-11-16 12:22:00,57.9,40.5,30.29,South,191,6.0,12.0,52,0.00,,,0.00,meteohub,2013-11-16 17:22:00,
2013-11-16 12:27:00,56.8,44.8,30.29,West,259,5.0,12.0,64,0.00,,,0.00,meteohub,2013-11-16 17:27:00,
2013-11-16 12:32:00,57.4,40.5,30.29,SSW,198,3.0,10.0,53,0.00,,,0.00,meteohub,2013-11-16 17:32:00,
2013-11-16 12:37:00,58.3,41.7,30.29,SSE,167,6.0,9.0,54,0.00,,,0.00,meteohub,2013-11-16 17:37:00,
2013-11-16 12:42:00,57.0,45.3,30.28,SSE,148,3.0,9.0,65,0.00,,,0.00,meteohub,2013-11-16 17:42:00,
2013-11-16 12:47:00,56.3,45.9,30.28,SSW,208,6.0,10.0,68,0.00,,,0.00,meteohub,2013-11-16 17:47:00,
2013-11-16 12:52:00,55.8,46.0,30.27,SSW,200,7.0,10.0,70,0.00,,,0.00,meteohub,2013-11-16 17:52:00,
2013-11-16 12:57:00,55.4,46.2,30.27,South,191,8.0,10.0,71,0.00,,,0.00,meteohub,2013-11-16 17:57:00,
2013-11-16 13:02:00,55.2,46.4,30.28,SSW,212,8.0,10.0,72,0.00,,,0.00,meteohub,2013-11-16 18:02:00,
2013-11-16 13:07:00,55.0,46.2,30.28,South,176,9.0,11.0,72,0.00,,,0.00,meteohub,2013-11-16 18:07:00,
2013-11-16 13:12:00,55.0,46.2,30.28,SSW,194,6.0,11.0,72,0.00,,,0.00,meteohub,2013-11-16 18:12:00,
2013-11-16 13:17:00,55.4,46.2,30.28,South,179,9.0,11.0,71,0.00,,,0.00,meteohub,2013-11-16 18:17:00,
2013-11-16 13:22:00,55.4,46.2,30.27,SSW,194,5.0,12.0,71,0.00,,,0.00,meteohub,2013-11-16 18:22:00,
2013-11-16 13:27:00,55.6,46.4,30.27,SSE,152,7.0,12.0,71,0.00,,,0.00,meteohub,2013-11-16 18:27:00,
2013-11-16 13:32:00,55.6,46.8,30.27,SSW,204,8.0,12.0,72,0.00,,,0.00,meteohub,2013-11-16 18:32:00,
2013-11-16 13:37:00,55.4,46.6,30.27,SSW,205,8.0,12.0,72,0.00,,,0.00,meteohub,2013-11-16 18:37:00,
2013-11-16 13:42:00,55.2,46.4,30.27,South,188,10.0,12.0,72,0.00,,,0.00,meteohub,2013-11-16 18:42:00,
2013-11-16 13:47:00,55.2,46.0,30.27,South,181,10.0,13.0,71,0.00,,,0.00,meteohub,2013-11-16 18:47:00,
2013-11-16 13:52:00,55.0,46.6,30.27,South,184,10.0,13.0,73,0.00,,,0.00,meteohub,2013-11-16 18:52:00,
2013-11-16 13:57:00,54.9,46.8,30.28,SSW,200,7.0,14.0,74,0.00,,,0.00,meteohub,2013-11-16 18:57:00,
2013-11-16 14:02:00,55.0,46.6,30.28,South,181,9.0,14.0,73,0.00,,,0.00,meteohub,2013-11-16 19:02:00,
2013-11-16 14:07:00,54.9,46.4,30.28,SSW,194,7.0,14.0,73,0.00,,,0.00,meteohub,2013-11-16 19:07:00,
2013-11-16 14:12:00,55.0,45.9,30.28,SSW,195,9.0,12.0,71,0.00,,,0.00,meteohub,2013-11-16 19:12:00,
2013-11-16 14:17:00,55.2,46.0,30.29,SSW,200,9.0,14.0,71,0.00,,,0.00,meteohub,2013-11-16 19:17:00,
2013-11-16 14:22:00,55.2,45.7,30.29,SSW,203,10.0,14.0,70,0.00,,,0.00,meteohub,2013-11-16 19:22:00,
2013-11-16 14:27:00,55.2,45.1,30.29,South,187,9.0,15.0,69,0.00,,,0.00,meteohub,2013-11-16 19:27:00,
2013-11-16 14:32:00,55.2,45.7,30.29,SSW,192,14.0,16.0,70,0.00,,,0.00,meteohub,2013-11-16 19:32:00,
2013-11-16 14:37:00,55.2,46.4,30.30,SW,222,12.0,16.0,72,0.00,,,0.00,meteohub,2013-11-16 19:37:00,
2013-11-16 14:42:00,55.0,46.2,30.29,SSW,207,13.0,16.0,72,0.00,,,0.00,meteohub,2013-11-16 19:42:00,
2013-11-16 14:46:00,55.0,46.2,30.30,SSW,201,5.0,16.0,72,0.00,,,0.00,meteohub,2013-11-16 19:46:00,
2013-11-16 14:51:00,55.0,46.6,30.30,SW,232,7.0,16.0,73,0.00,,,0.00,meteohub,2013-11-16 19:51:00,
2013-11-16 14:56:00,55.0,46.2,30.30,SSW,210,7.0,16.0,72,0.00,,,0.00,meteohub,2013-11-16 19:56:00,
2013-11-16 15:01:00,55.0,46.6,30.30,SSW,197,10.0,14.0,73,0.00,,,0.00,meteohub,2013-11-16 20:01:00,
2013-11-16 15:06:00,54.9,46.8,30.30,SW,222,11.0,14.0,74,0.00,,,0.00,meteohub,2013-11-16 20:06:00,
2013-11-16 15:11:00,54.9,46.8,30.30,West,271,4.0,14.0,74,0.00,,,0.00,meteohub,2013-11-16 20:11:00,
2013-11-16 15:16:00,54.9,46.4,30.31,WSW,253,9.0,18.0,73,0.00,,,0.00,meteohub,2013-11-16 20:16:00,
2013-11-16 15:21:00,54.9,46.4,30.31,SSW,194,13.0,18.0,73,0.00,,,0.00,meteohub,2013-11-16 20:21:00,
2013-11-16 15:26:00,54.9,45.3,30.31,WSW,247,9.0,16.0,70,0.00,,,0.00,meteohub,2013-11-16 20:26:00,
2013-11-16 15:31:00,54.9,45.3,30.31,SW,221,9.0,16.0,70,0.00,,,0.00,meteohub,2013-11-16 20:31:00,
2013-11-16 15:37:00,55.0,45.9,30.31,WSW,238,6.0,16.0,71,0.00,,,0.00,meteohub,2013-11-16 20:37:00,
2013-11-16 15:42:00,55.0,46.6,30.31,WSW,237,6.0,13.0,73,0.00,,,0.00,meteohub,2013-11-16 20:42:00,
2013-11-16 15:46:00,54.9,47.1,30.31,SSW,207,8.0,12.0,75,0.00,,,0.00,meteohub,2013-11-16 20:46:00,
2013-11-16 15:51:00,54.7,47.7,30.32,SSW,207,5.0,12.0,77,0.00,,,0.00,meteohub,2013-11-16 20:51:00,
2013-11-16 15:56:00,54.7,47.7,30.31,WSW,251,3.0,9.0,77,0.00,,,0.00,meteohub,2013-11-16 20:56:00,
2013-11-16 16:01:00,54.3,47.3,30.32,WSW,245,2.0,9.0,77,0.00,,,0.00,meteohub,2013-11-16 21:01:00,
2013-11-16 16:06:00,54.1,47.1,30.32,SW,233,3.0,8.0,77,0.00,,,0.00,meteohub,2013-11-16 21:06:00,
2013-11-16 16:11:00,54.0,47.3,30.32,SW,222,4.0,8.0,78,0.00,,,0.00,meteohub,2013-11-16 21:11:00,
2013-11-16 16:16:00,53.6,46.9,30.32,SSW,193,4.0,6.0,78,0.00,,,0.00,meteohub,2013-11-16 21:16:00,
2013-11-16 16:21:00,53.2,46.6,30.32,SSW,210,3.0,6.0,78,0.00,,,0.00,meteohub,2013-11-16 21:21:00,
2013-11-16 16:26:00,53.1,46.8,30.32,SW,228,2.0,7.0,79,0.00,,,0.00,meteohub,2013-11-16 21:26:00,
2013-11-16 16:31:00,52.5,46.2,30.32,SSE,159,2.0,7.0,79,0.00,,,0.00,meteohub,2013-11-16 21:31:00,
2013-11-16 16:36:00,52.2,46.2,30.32,South,176,4.0,4.0,80,0.00,,,0.00,meteohub,2013-11-16 21:36:00,
2013-11-16 16:41:00,51.6,46.0,30.33,South,181,2.0,4.0,81,0.00,,,0.00,meteohub,2013-11-16 21:41:00,
2013-11-16 16:46:00,51.3,46.2,30.33,South,176,2.0,4.0,83,0.00,,,0.00,meteohub,2013-11-16 21:46:00,
2013-11-16 16:51:00,51.1,46.8,30.33,South,187,3.0,5.0,85,0.00,,,0.00,meteohub,2013-11-16 21:51:00,
2013-11-16 16:57:00,51.1,47.1,30.33,South,191,3.0,5.0,86,0.00,,,0.00,meteohub,2013-11-16 21:57:00,
2013-11-16 17:02:00,51.1,47.1,30.33,SSW,207,5.0,7.0,86,0.00,,,0.00,meteohub,2013-11-16 22:02:00,
2013-11-16 17:07:00,51.1,47.1,30.33,SSW,212,1.0,7.0,86,0.00,,,0.00,meteohub,2013-11-16 22:07:00,
2013-11-16 17:12:00,50.9,46.9,30.33,SSW,203,0.0,7.0,86,0.00,,,0.00,meteohub,2013-11-16 22:12:00,
2013-11-16 17:17:00,50.7,46.9,30.33,SSW,201,0.0,6.0,87,0.00,,,0.00,meteohub,2013-11-16 22:17:00,
2013-11-16 17:22:00,50.4,46.4,30.33,SSE,167,0.0,5.0,86,0.00,,,0.00,meteohub,2013-11-16 22:22:00,
2013-11-16 17:27:00,50.0,46.2,30.33,SSE,165,0.0,2.0,87,0.00,,,0.00,meteohub,2013-11-16 22:27:00,
2013-11-16 17:32:00,49.6,45.9,30.33,SSE,155,0.0,0.0,87,0.00,,,0.00,meteohub,2013-11-16 22:32:00,
2013-11-16 17:37:00,49.5,46.0,30.33,SSE,148,0.0,0.0,88,0.00,,,0.00,meteohub,2013-11-16 22:37:00,
2013-11-16 17:42:00,49.3,45.9,30.33,SSW,201,0.0,0.0,88,0.00,,,0.00,meteohub,2013-11-16 22:42:00,
2013-11-16 17:47:00,48.6,45.1,30.33,SSW,211,0.0,0.0,88,0.00,,,0.00,meteohub,2013-11-16 22:47:00,
2013-11-16 17:52:00,48.0,45.0,30.33,SSW,198,0.0,0.0,89,0.00,,,0.00,meteohub,2013-11-16 22:52:00,
2013-11-16 17:57:00,48.0,45.1,30.33,SW,217,0.0,0.0,90,0.00,,,0.00,meteohub,2013-11-16 22:57:00,
2013-11-16 18:02:00,47.8,45.0,30.34,SW,222,0.0,1.0,90,0.00,,,0.00,meteohub,2013-11-16 23:02:00,
2013-11-16 18:07:00,47.5,44.8,30.33,SW,222,0.0,1.0,90,0.00,,,0.00,meteohub,2013-11-16 23:07:00,
2013-11-16 18:12:00,47.5,45.0,30.33,SW,222,0.0,1.0,91,0.00,,,0.00,meteohub,2013-11-16 23:12:00,
2013-11-16 18:17:00,47.1,44.6,30.33,SW,222,0.0,0.0,91,0.00,,,0.00,meteohub,2013-11-16 23:17:00,
2013-11-16 18:22:00,46.8,44.2,30.33,SW,222,0.0,0.0,91,0.00,,,0.00,meteohub,2013-11-16 23:22:00,
2013-11-16 18:27:00,46.6,44.1,30.33,SW,228,0.0,0.0,91,0.00,,,0.00,meteohub,2013-11-16 23:27:00,
2013-11-16 18:32:00,46.2,44.1,30.33,SW,228,0.0,1.0,92,0.00,,,0.00,meteohub,2013-11-16 23:32:00,
2013-11-16 18:37:00,46.0,43.9,30.33,West,281,1.0,1.0,92,0.00,,,0.00,meteohub,2013-11-16 23:37:00,
2013-11-16 18:42:00,45.5,43.0,30.33,West,281,0.0,1.0,91,0.00,,,0.00,meteohub,2013-11-16 23:42:00,
2013-11-16 18:47:00,44.8,42.3,30.33,West,281,0.0,1.0,91,0.00,,,0.00,meteohub,2013-11-16 23:47:00,
2013-11-16 18:52:00,44.4,42.3,30.33,West,281,0.0,1.0,92,0.00,,,0.00,meteohub,2013-11-16 23:52:00,
2013-11-16 18:57:00,44.1,41.9,30.33,West,281,0.0,0.0,92,0.00,,,0.00,meteohub,2013-11-16 23:57:00,
2013-11-16 19:02:00,44.2,42.3,30.33,WNW,287,0.0,1.0,93,0.00,,,0.00,meteohub,2013-11-17 00:02:00,
2013-11-16 19:07:00,43.7,41.5,30.33,SE,129,0.0,1.0,92,0.00,,,0.00,meteohub,2013-11-17 00:07:00,
2013-11-16 19:12:00,43.5,41.7,30.34,SSW,205,0.0,1.0,93,0.00,,,0.00,meteohub,2013-11-17 00:12:00,
2013-11-16 19:17:00,43.5,41.9,30.34,SW,229,0.0,1.0,94,0.00,,,0.00,meteohub,2013-11-17 00:17:00,
2013-11-16 19:22:00,43.3,41.7,30.34,SW,229,0.0,1.0,94,0.00,,,0.00,meteohub,2013-11-17 00:22:00,
2013-11-16 19:27:00,43.2,41.5,30.34,SW,229,0.0,0.0,94,0.00,,,0.00,meteohub,2013-11-17 00:27:00,
2013-11-16 19:32:00,43.2,41.9,30.34,SW,229,0.0,0.0,95,0.00,,,0.00,meteohub,2013-11-17 00:32:00,
2013-11-16 19:37:00,43.3,42.1,30.34,SW,229,0.0,0.0,95,0.00,,,0.00,meteohub,2013-11-17 00:37:00,
2013-11-16 19:42:00,43.9,42.8,30.34,SW,229,0.0,0.0,96,0.00,,,0.00,meteohub,2013-11-17 00:42:00,
2013-11-16 19:47:00,43.5,41.9,30.34,SW,229,0.0,0.0,94,0.00,,,0.00,meteohub,2013-11-17 00:47:00,
2013-11-16 19:52:00,43.0,41.4,30.34,SW,229,0.0,0.0,94,0.00,,,0.00,meteohub,2013-11-17 00:52:00,
2013-11-16 19:57:00,42.6,41.0,30.34,SW,229,0.0,0.0,94,0.00,,,0.00,meteohub,2013-11-17 00:57:00,
2013-11-16 20:02:00,42.4,41.2,30.34,SW,229,0.0,0.0,95,0.00,,,0.00,meteohub,2013-11-17 01:02:00,
2013-11-16 20:07:00,42.3,41.0,30.34,SW,229,0.0,0.0,95,0.00,,,0.00,meteohub,2013-11-17 01:07:00,
2013-11-16 20:12:00,42.3,41.0,30.33,SW,229,0.0,0.0,95,0.00,,,0.00,meteohub,2013-11-17 01:12:00,
2013-11-16 20:17:00,42.1,40.8,30.33,SW,229,0.0,0.0,95,0.00,,,0.00,meteohub,2013-11-17 01:17:00,
2013-11-16 20:22:00,42.1,40.8,30.33,SW,229,0.0,0.0,95,0.00,,,0.00,meteohub,2013-11-17 01:22:00,
2013-11-16 20:27:00,42.1,40.8,30.34,SW,229,0.0,0.0,95,0.00,,,0.00,meteohub,2013-11-17 01:27:00,
2013-11-16 20:32:00,41.9,40.6,30.34,SW,229,0.0,0.0,95,0.00,,,0.00,meteohub,2013-11-17 01:32:00,
2013-11-16 20:37:00,41.5,40.3,30.34,SW,229,0.0,0.0,95,0.00,,,0.00,meteohub,2013-11-17 01:37:00,
2013-11-16 20:42:00,41.7,40.5,30.34,SW,229,0.0,0.0,95,0.00,,,0.00,meteohub,2013-11-17 01:42:00,
2013-11-16 20:47:00,41.5,40.3,30.34,ENE,72,2.0,0.0,95,0.00,,,0.00,meteohub,2013-11-17 01:47:00,
2013-11-16 20:52:00,41.7,40.6,30.34,ENE,72,0.0,2.0,96,0.00,,,0.00,meteohub,2013-11-17 01:52:00,
2013-11-16 20:57:00,41.5,40.3,30.34,ENE,72,0.0,2.0,95,0.00,,,0.00,meteohub,2013-11-17 01:57:00,
2013-11-16 21:02:00,41.2,39.9,30.34,ENE,72,0.0,2.0,95,0.00,,,0.00,meteohub,2013-11-17 02:02:00,
2013-11-16 21:07:00,40.8,39.6,30.34,ENE,72,0.0,0.0,95,0.00,,,0.00,meteohub,2013-11-17 02:07:00,
2013-11-16 21:12:00,40.8,39.7,30.33,ENE,72,0.0,0.0,96,0.00,,,0.00,meteohub,2013-11-17 02:12:00,
2013-11-16 21:17:00,40.6,39.4,30.34,ENE,72,0.0,0.0,95,0.00,,,0.00,meteohub,2013-11-17 02:17:00,
2013-11-16 21:22:00,40.3,39.0,30.33,ENE,72,0.0,0.0,95,0.00,,,0.00,meteohub,2013-11-17 02:22:00,
2013-11-16 21:27:00,40.3,39.2,30.33,ENE,72,0.0,0.0,96,0.00,,,0.00,meteohub,2013-11-17 02:27:00,
2013-11-16 21:32:00,40.3,39.2,30.33,ENE,72,0.0,0.0,96,0.00,,,0.00,meteohub,2013-11-17 02:32:00,
2013-11-16 21:37:00,39.9,38.7,30.33,NW,322,0.0,0.0,95,0.00,,,0.00,meteohub,2013-11-17 02:37:00,
2013-11-16 21:42:00,39.6,38.5,30.33,NNW,340,0.0,0.0,96,0.00,,,0.00,meteohub,2013-11-17 02:42:00,
2013-11-16 21:47:00,39.6,38.5,30.33,NE,47,0.0,1.0,96,0.00,,,0.00,meteohub,2013-11-17 02:47:00,
2013-11-16 21:52:00,39.7,38.7,30.33,NE,45,0.0,1.0,96,0.00,,,0.00,meteohub,2013-11-17 02:52:00,
2013-11-16 21:57:00,39.4,38.3,30.33,NNW,330,0.0,1.0,96,0.00,,,0.00,meteohub,2013-11-17 02:57:00,
2013-11-16 22:02:00,39.0,37.8,30.33,NNW,330,0.0,1.0,95,0.00,,,0.00,meteohub,2013-11-17 03:02:00,
2013-11-16 22:06:00,38.8,37.8,30.33,NNW,330,0.0,1.0,96,0.00,,,0.00,meteohub,2013-11-17 03:06:00,
2013-11-16 22:11:00,38.7,37.6,30.33,NNW,330,0.0,0.0,96,0.00,,,0.00,meteohub,2013-11-17 03:11:00,
2013-11-16 22:16:00,38.7,37.6,30.32,NNW,330,0.0,0.0,96,0.00,,,0.00,meteohub,2013-11-17 03:16:00,
2013-11-16 22:22:00,38.7,37.6,30.32,NNW,330,0.0,0.0,96,0.00,,,0.00,meteohub,2013-11-17 03:22:00,
2013-11-16 22:27:00,38.3,37.2,30.33,NNW,330,0.0,0.0,96,0.00,,,0.00,meteohub,2013-11-17 03:27:00,
2013-11-16 22:32:00,38.3,37.2,30.32,NNW,330,0.0,0.0,96,0.00,,,0.00,meteohub,2013-11-17 03:32:00,
2013-11-16 22:37:00,38.3,37.2,30.33,NNW,330,0.0,0.0,96,0.00,,,0.00,meteohub,2013-11-17 03:37:00,
2013-11-16 22:42:00,38.3,37.2,30.33,NNW,330,0.0,0.0,96,0.00,,,0.00,meteohub,2013-11-17 03:42:00,
2013-11-16 22:47:00,38.1,37.0,30.33,NNW,330,0.0,0.0,96,0.00,,,0.00,meteohub,2013-11-17 03:47:00,
2013-11-16 22:52:00,37.9,36.9,30.33,NNW,330,0.0,0.0,96,0.00,,,0.00,meteohub,2013-11-17 03:52:00,
2013-11-16 22:57:00,37.8,36.7,30.33,NNW,330,0.0,0.0,96,0.00,,,0.00,meteohub,2013-11-17 03:57:00,
2013-11-16 23:02:00,37.8,36.7,30.33,NNW,330,0.0,0.0,96,0.00,,,0.00,meteohub,2013-11-17 04:02:00,
2013-11-16 23:07:00,37.6,36.5,30.33,NNW,330,0.0,0.0,96,0.00,,,0.00,meteohub,2013-11-17 04:07:00,
2013-11-16 23:12:00,37.6,36.5,30.33,NNW,330,0.0,0.0,96,0.00,,,0.00,meteohub,2013-11-17 04:12:00,
2013-11-16 23:17:00,37.2,36.1,30.33,NNW,330,0.0,0.0,96,0.00,,,0.00,meteohub,2013-11-17 04:17:00,
2013-11-16 23:22:00,37.2,36.5,30.33,NNW,330,0.0,0.0,97,0.00,,,0.00,meteohub,2013-11-17 04:22:00,
2013-11-16 23:27:00,37.2,36.5,30.33,NNW,330,0.0,1.0,97,0.00,,,0.00,meteohub,2013-11-17 04:27:00,
2013-11-16 23:32:00,37.0,36.0,30.33,NNW,330,0.0,1.0,96,0.00,,,0.00,meteohub,2013-11-17 04:32:00,
2013-11-16 23:37:00,36.9,35.8,30.33,NNW,330,0.0,1.0,96,0.00,,,0.00,meteohub,2013-11-17 04:37:00,
2013-11-16 23:42:00,36.9,36.1,30.33,NNW,330,0.0,0.0,97,0.00,,,0.00,meteohub,2013-11-17 04:42:00,
2013-11-16 23:47:00,36.9,36.1,30.33,NNW,330,0.0,0.0,97,0.00,,,0.00,meteohub,2013-11-17 04:47:00,
2013-11-16 23:52:00,36.9,36.1,30.33,NNW,330,0.0,0.0,97,0.00,,,0.00,meteohub,2013-11-17 04:52:00,
2013-11-16 23:57:00,37.0,36.3,30.33,NNW,330,0.0,0.0,97,0.00,,,0.00,meteohub,2013-11-17 04:57:00,